This is the latest recevied weather packets stored in our database for station/object NEWPRT. If no packets are shown the sender has not sent any weather packets the latest 10 day(s).
| Time | Temp. | Humidity | Pressure | Rain* | Wind** | Luminosity | Snow |
|---|---|---|---|---|---|---|---|
| 1778160232 | - | 64% | 1021.1 hPa | 0 mm | - | - | - |
| 1778159909 | - | 65% | 1021.1 hPa | 0 mm | - | - | - |
| 1778159586 | - | 66% | 1021.1 hPa | 0 mm | - | - | - |
| 1778159263 | - | 65% | 1020.9 hPa | 0 mm | - | - | - |
| 1778158940 | - | 64% | 1020.8 hPa | 0 mm | - | - | - |
| 1778158617 | - | 66% | 1021 hPa | 0 mm | - | - | - |
| 1778158294 | - | 63% | 1020.8 hPa | 0 mm | - | - | - |
| 1778157972 | - | 64% | 1020.8 hPa | 0 mm | - | - | - |
| 1778157648 | - | 66% | 1020.8 hPa | 0 mm | - | - | - |
| 1778157329 | - | 65% | 1020.9 hPa | 0 mm | - | - | - |
| 1778157003 | - | 66% | 1020.8 hPa | 0 mm | - | - | - |
| 1778156680 | - | 66% | 1020.9 hPa | 0 mm | - | - | - |
| 1778156356 | - | 67% | 1021.1 hPa | 0 mm | - | - | - |
| 1778156033 | - | 67% | 1021.1 hPa | 0 mm | - | - | - |
| 1778155710 | - | 67% | 1021.1 hPa | 0 mm | - | - | - |
| 1778155389 | - | 66% | 1021.2 hPa | 0 mm | - | - | - |
| 1778155065 | - | 65% | 1021.2 hPa | 0 mm | - | - | - |
| 1778154742 | - | 66% | 1021.1 hPa | 0 mm | - | - | - |
| 1778154419 | - | 66% | 1021.3 hPa | 0 mm | - | - | - |
| 1778154096 | - | 65% | 1021.3 hPa | 0 mm | - | - | - |
| 1778153776 | - | 68% | 1021.3 hPa | 0 mm | - | - | - |
| 1778153450 | - | 68% | 1021.2 hPa | 0 mm | - | - | - |
| 1778153127 | - | 66% | 1021.4 hPa | 0 mm | - | - | - |
| 1778152803 | - | 67% | 1021.2 hPa | 0 mm | - | - | - |
| 1778152480 | - | 66% | 1021.3 hPa | 0 mm | - | - | - |
* Rain latest hour (hover to see other rain measurements)
** Current wind speed in m/s (hover to see current wind gust speed)